Location: Newark
(48.4472°N, 1.4892°E)
Time: 14:13:21
(UTC+00:00)

Transit 4A - Pass Details

Date: 23 January 2021
Orbit: 866 x 978 km, 66.8° (Epoch: 01 March)

Event Time Altitude Azimuth Distance (km) Brightness Sun altitude
Rises 17:31:34 0° 159° (SSE) 3,660 11.0 -8.8°
Reaches altitude 10° 17:35:06 10° 140° (SE) 2,723 10.1 -9.4°
Maximum altitude 17:38:54 17° 103° (ESE) 2,274 9.4 -10.0°
Enters shadow 17:41:36 13° 75° (ENE) 2,513 9.5 -10.4°
